Location: Pontbriand
(46.1542°N, 71.2542°W)
Time: 22:07:04
(UTC+00:00)

Envisat - Pass Details

Date: 05 December 2021
Orbit: 764 x 766 km, 98.2° (Epoch: 19 January)

Event Time Altitude Azimuth Distance (km) Brightness Sun altitude
Rises 11:34:12 0° 357° (N) 3,245 6.0 -6.5°
Reaches altitude 10° 11:37:35 10° 334° (NNW) 2,313 5.0 -6.0°
Maximum altitude 11:40:09 14° 303° (WNW) 2,034 4.6 -5.6°
Drops below altitude 10° 11:42:43 10° 273° (W) 2,305 4.9 -5.2°
Sets 11:46:05 0° 249° (WSW) 3,226 5.8 -4.7°
